Temp_Advection
nan nan nan nan nan nan nan nan nan nan nan nan nan nan nan nan nan nan nan nan nan nan nan nan nan nan nan nan nan nan nan nan nan nan nan nan nan nan nan nan nan nan nan nan nan nan nan nan nan
nan 0 -0 -0 -0 0 0 0 -0 0 0 -0 -0 -0 -0 -0 0 0 -0 -0 -0 -0 -0 0 0 0 0 0 0 0 0 0 0 -0 0 0 0 0 0 -0 -0 0 0 -0 -0 -0 -0 -0 nan
nan 0 0 -0 0 0 0 -0 0 0 0 -0 -0 -0 -0 -0 -0 -0 -0 -0 -0 -0 0 0 0 0 0 0 0 0 0 -0 -0 -0 0 0 0 0 0 -0 -0 -0 -0 0 0 -0 -0 0 nan
nan -0 -0 0 -0 0 0 0 0 0 -0 -0 -0 -0 0 -0 -0 -0 -0 -0 0 0 0 0 0 0 0 0 0 0 0 0 -0 -0 -0 0 0 0 0 -0 0 0 -0 0 0 0 -0 -0 nan
nan -0 -0 0 -0 0 0 -0 -0 0 0 0 0 0 -0 -0 -0 -0 -0 0 0 0 -0 0 0 0 0 0 0 0 0 0 0 0 0 0 0 -0 0 -0 -0 0 0 0 -0 0 0 -0 nan
nan -0 0 0 0 -0 -0 -0 -0 -0 0 0 -0 0 -0 -0 0 0 0 0 0 0 -0 0 0 0 0 0 0 0 0 -0 0 0 0 0 0 0 0 0 -0 0 0 0 -0 -0 -0 -0 nan
nan -0 0 0 -0 -0 -0 -0 -0 -0 -0 -0 -0 -0 -0 -0 0 0 0 0 0 0 0 0 0 0 0 0 0 0 0 0 0 0 0 0 0 0 0 0 0 -0 0 0 0 -0 -0 -0 nan
nan -0 0 -0 -0 -0 0 0 -0 -0 -0 -0 0 -0 -0 -0 0 0 0 -0 -0 -0 0 -0 -0 -0 -0 0 0 0 0 0 0 0 0 0 0 0 0 -0 -0 0 0 0 0 0 -0 -0 nan
nan -0 -0 0 0 -0 0 0 0 0 0 0 -0 -0 -0 0 0 -0 -0 -0 -0 -0 -0 0 0 -0 0 0 0 0 0 0 0 0 0 0 0 0 0 -0 -0 -0 -0 0 -0 -0 -0 -0 nan
nan 0 -0 0 -0 0 -0 -0 0 0 0 -0 -0 -0 0 0 0 -0 -0 -0 -0 -0 0 0 0 0 0 0 0 0 0 0 0 0 0 0 0 0 0 0 0 -0 -0 0 -0 -0 -0 -0 nan
nan -0 0 -0 -0 0 0 0 0 0 -0 -1 -0 0 0 0 0 -0 -0 -0 0 0 0 0 0 0 0 0 0 0 0 0 0 0 0 0 0 0 0 -0 -0 -0 -0 -0 -0 -0 -0 -0 nan
nan -0 0 -0 0 0 0 0 0 -0 -0 -0 0 0 0 0 0 0 0 0 0 0 0 0 0 0 0 0 0 0 0 0 -0 0 0 0 0 0 -0 0 0 0 -0 -0 -0 -0 -0 -0 nan
nan -0 0 0 0 0 0 0 -0 -1 -0 0 -0 0 0 0 0 0 0 0 0 0 0 -0 0 0 0 0 0 0 0 0 -0 -0 0 0 0 0 0 0 0 0 0 0 -0 0 0 -0 nan
nan -0 0 0 0 0 0 -0 -0 -0 -0 0 0 0 0 0 0 0 -0 -0 -0 0 0 0 0 0 0 0 0 0 0 0 -0 -0 -0 0 0 -0 0 0 0 0 0 0 0 0 -0 -0 nan
nan 0 0 0 0 0 0 0 -0 -1 -0 -0 -0 0 0 0 -0 -0 -0 -0 0 0 0 0 0 0 0 -0 0 0 0 -0 -0 0 0 -0 -0 0 0 0 0 0 0 0 0 0 0 0 nan
nan 0 0 0 0 0 0 0 -0 -0 0 0 -0 -0 -0 -0 -0 -0 -0 0 0 0 0 0 0 0 0 0 0 0 -0 0 0 0 0 0 0 0 0 0 0 0 0 0 0 0 0 0 nan
nan -0 0 0 0 0 0 -0 -0 0 0 -0 -0 -0 -0 -0 -0 -0 0 0 0 0 0 0 0 0 0 0 0 -0 0 0 0 0 0 0 0 -0 -0 0 0 0 0 0 -0 0 0 0 nan
nan 0 -0 0 -0 0 0 -0 -0 -0 0 -1 -1 0 0 -0 -0 0 0 0 0 0 0 0 0 0 0 0 0 0 0 0 0 0 0 -0 -0 0 0 0 0 0 0 0 -0 0 0 0 nan
nan 0 0 0 -0 -0 0 -0 -1 -0 1 -1 -2 -0 -0 -1 0 1 0 0 0 0 0 0 0 0 0 0 0 0 0 0 0 0 0 0 0 0 0 0 0 0 0 0 -0 0 0 0 nan
nan 0 0 0 -0 0 -0 -1 -0 0 -0 -1 -1 -1 -1 -1 0 0 0 0 0 0 0 0 1 1 0 0 0 0 0 0 0 0 0 0 -0 -0 0 0 0 0 0 0 0 0 0 0 nan
nan 0 -0 0 0 -0 -0 -1 -0 0 0 -1 -1 -0 -1 -0 1 1 1 0 0 1 1 1 1 0 0 0 0 0 0 0 0 0 0 -0 0 -0 -0 0 0 0 0 0 0 0 0 0 nan
nan 0 -0 -0 -0 0 -0 -1 0 -0 1 -1 -3 -0 -0 1 1 1 1 0 0 1 1 1 1 1 0 0 0 0 0 0 0 0 0 0 0 -0 -0 0 0 -0 0 0 0 0 0 0 nan
nan -0 -0 -0 0 -0 0 0 -0 0 -0 -0 -0 -0 -0 0 1 1 0 -0 0 0 0 0 0 0 0 0 0 0 0 0 0 0 0 0 0 0 -0 -0 0 0 -0 0 0 0 0 0 nan
nan 0 -0 -0 0 -0 0 0 -0 -0 0 0 -0 -0 -0 0 0 0 0 0 0 0 0 0 0 0 0 0 0 0 0 0 0 0 0 0 0 0 0 -0 0 0 -0 -0 0 0 0 0 nan
nan -0 0 0 0 -0 -0 0 -1 -0 0 -0 -1 -1 -0 -0 -0 0 0 0 0 0 0 1 1 1 1 0 0 0 0 0 0 0 0 0 0 0 0 0 0 -0 -0 -0 0 0 0 0 nan
nan 0 0 -0 0 0 0 -1 -0 0 -2 -1 1 0 -1 -1 0 0 0 0 0 0 0 0 0 1 1 0 0 0 0 0 0 0 0 -0 0 0 0 0 0 0 0 -0 -0 0 0 0 nan
nan 0 -0 -0 -0 -0 -0 -0 -0 0 -0 -0 -0 -1 -1 -0 0 0 0 0 0 0 0 0 0 1 0 0 0 0 0 0 0 0 0 0 0 0 0 0 0 0 0 0 0 0 0 0 nan
nan -0 -0 -0 -0 0 -0 -0 -0 -0 0 0 -0 -1 -1 -0 -0 0 0 0 0 0 0 0 1 1 1 1 0 0 0 0 0 0 0 0 0 0 0 0 0 0 0 0 0 0 -0 0 nan
nan -0 -0 -0 -0 0 -0 0 0 -0 -0 -0 -0 0 -0 -0 -0 -0 0 1 0 0 0 0 1 1 1 1 1 1 0 0 0 0 0 0 1 1 0 0 0 0 0 0 0 0 0 0 nan
nan nan nan nan nan nan nan nan nan nan nan nan nan nan nan nan nan nan nan nan nan nan nan nan nan nan nan nan nan nan nan nan nan nan nan nan nan nan nan nan nan nan nan nan nan nan nan nan nan
Wind_Speed
2 2 3 2 3 4 1 3 1 1 0 1 2 3 3 4 2 1 10 9 7 5 4 4 3 3 3 3 2 3 4 3 4 3 3 4 4 4 5 7 8 9 9 9 9 8 7 7 7
3 5 2 2 3 2 2 1 3 2 2 12 8 6 2 2 3 6 8 9 8 4 4 4 3 1 2 3 3 3 3 4 3 3 4 3 3 3 6 7 7 8 8 8 8 8 7 6 6
4 3 0 4 3 3 3 4 4 4 8 4 4 3 4 6 6 8 6 9 7 5 4 4 3 3 2 2 3 4 3 3 4 3 2 2 2 3 5 5 6 6 7 7 8 8 8 7 6
3 2 5 3 2 2 2 4 6 5 3 5 3 4 4 6 7 6 8 8 6 5 5 4 3 3 3 3 4 4 4 3 3 2 2 1 1 1 2 1 2 4 5 6 5 5 5 5 5
3 1 3 3 2 2 3 3 9 5 4 6 7 4 3 9 7 9 9 8 5 3 6 4 4 3 3 3 4 4 1 1 1 1 1 1 1 1 1 1 1 2 3 4 4 3 3 3 3
1 2 3 2 3 2 4 6 8 4 5 6 5 8 5 10 11 11 10 8 6 5 4 4 4 4 4 5 5 3 2 1 1 2 2 3 2 1 2 3 2 2 2 2 2 3 3 3 3
3 3 2 3 3 2 5 9 5 7 5 5 3 6 4 13 13 12 11 10 8 5 4 5 5 4 4 5 4 2 2 2 2 2 2 3 2 2 3 4 3 2 1 1 2 2 3 5 6
3 5 2 3 4 4 6 11 5 9 6 4 9 4 3 12 15 14 13 11 9 6 5 5 5 5 4 4 4 4 3 2 2 2 2 2 2 2 2 3 4 3 4 2 3 5 7 5 6
3 4 2 4 6 3 6 3 6 4 5 10 9 6 4 10 16 16 15 13 12 9 7 7 6 5 4 4 3 2 2 2 2 2 1 1 1 1 2 3 4 5 5 5 6 7 8 7 10
3 3 5 4 4 3 5 3 6 2 5 7 11 12 10 12 16 16 15 13 12 10 8 8 7 6 5 4 3 2 2 2 2 1 1 1 2 2 3 3 4 5 6 7 9 9 12 14 14
3 4 3 3 4 5 6 2 4 4 4 12 14 16 15 16 18 17 15 12 8 8 8 7 10 7 6 4 4 3 3 3 2 2 2 3 3 4 6 6 8 8 9 9 10 12 12 12 9
2 1 2 3 2 2 3 2 3 10 6 3 9 10 16 18 19 18 16 12 11 10 9 9 9 7 5 5 4 3 4 3 4 4 3 4 4 4 5 8 10 11 11 11 11 12 13 10 8
1 2 2 3 3 1 2 4 6 15 12 13 10 9 13 16 16 16 14 12 12 13 11 10 10 9 6 6 5 5 5 4 2 2 2 3 5 7 9 10 12 12 13 13 13 14 14 13 13
3 2 3 3 2 1 1 2 2 2 3 11 17 14 14 16 15 15 16 15 14 12 12 11 10 10 8 8 7 7 6 5 4 3 4 4 5 6 8 9 10 10 11 12 13 13 13 11 11
4 2 1 1 2 1 2 3 7 12 13 8 15 15 16 17 18 18 15 15 15 13 13 14 12 11 9 9 9 9 8 7 6 5 5 6 7 8 8 9 9 10 10 11 12 12 11 8 10
2 4 1 2 3 2 2 7 6 5 9 10 14 19 19 19 19 16 16 16 17 17 17 16 15 13 11 11 11 10 9 8 8 7 6 7 8 9 9 10 10 11 11 11 11 10 9 11 12
5 3 4 4 4 2 4 6 6 8 10 14 17 20 24 24 23 21 20 19 18 18 19 20 19 17 13 12 12 12 11 10 8 7 7 7 8 9 10 11 11 11 11 11 11 11 12 12 13
5 4 3 4 2 0 3 13 10 15 17 26 24 24 27 29 28 20 20 19 19 20 21 22 22 20 17 14 15 14 13 11 9 8 7 8 9 10 11 11 11 11 11 11 11 11 12 12 12
4 4 4 3 0 1 6 9 18 18 21 26 31 34 38 37 30 25 22 22 21 24 24 25 26 24 21 18 16 16 14 12 10 9 8 8 8 10 10 10 11 11 11 11 11 11 11 12 11
2 1 4 3 1 0 6 17 15 15 11 19 24 26 31 35 35 34 29 27 24 24 25 26 27 26 21 16 13 13 12 12 11 9 8 8 9 10 10 10 11 11 11 12 12 12 12 12 11
1 3 3 3 2 1 5 9 5 4 6 12 19 21 22 24 27 35 32 28 23 25 25 25 25 25 22 19 17 14 14 13 11 9 8 8 9 10 10 11 11 12 12 12 12 12 12 12 12
2 2 2 3 3 3 3 6 5 5 9 8 28 25 27 23 22 25 32 28 23 22 22 22 24 25 23 21 18 15 12 11 10 9 9 10 10 11 11 12 12 13 13 13 13 12 12 13 12
4 3 4 3 4 4 3 2 9 2 8 13 15 19 18 20 19 18 29 25 21 19 19 20 22 24 24 23 20 16 14 12 11 10 10 10 11 12 12 13 14 14 15 15 14 14 13 13 13
9 5 5 4 3 1 7 7 7 5 7 5 3 11 10 9 12 14 23 25 24 23 22 22 25 27 27 26 22 19 15 13 12 11 11 12 12 12 12 14 14 15 16 16 16 16 15 14 14
1 5 2 3 1 6 2 3 10 8 9 7 11 15 7 4 9 16 24 26 24 23 22 23 26 29 29 27 24 20 16 15 14 13 12 12 12 13 13 15 15 16 17 17 17 17 16 15 15
5 5 5 7 4 3 2 7 7 9 20 26 26 22 17 15 13 18 23 24 23 22 23 23 24 28 29 27 24 20 18 17 15 13 12 12 14 16 16 16 16 16 17 17 17 17 17 16 15
5 4 1 3 2 1 5 6 8 9 12 14 12 11 12 12 13 18 22 25 23 23 22 22 22 26 28 26 24 22 20 19 16 13 13 13 15 17 17 17 16 16 17 17 17 17 17 15 15
3 4 3 2 3 6 4 4 5 5 9 8 9 13 14 13 13 14 20 24 23 23 22 22 22 24 26 26 25 24 22 19 16 15 14 14 16 16 16 15 15 15 16 17 17 17 16 16 15
3 3 1 2 4 4 5 5 6 4 4 5 7 14 17 15 12 12 14 21 22 22 22 22 24 26 28 28 26 24 22 19 17 15 15 15 16 15 14 13 14 15 15 16 16 16 16 16 15
3 6 6 4 5 3 1 12 1 4 5 7 14 24 26 25 21 16 12 19 23 24 24 24 24 26 26 26 24 22 20 19 17 16 15 16 16 14 15 14 15 15 14 14 15 16 16 16 15
Wind_Direction
140 138 133 147 68 64 167 221 177 203 185 124 132 144 124 73 138 195 150 156 162 155 133 142 124 113 122 127 131 122 125 131 136 130 123 130 137 102 79 75 72 75 72 69 72 80 78 74 75
144 141 137 89 91 104 247 257 202 211 154 127 108 102 70 94 135 161 156 164 161 173 177 170 151 129 127 129 138 127 130 123 126 125 123 127 124 87 89 86 91 90 89 83 76 69 68 68 65
160 158 168 93 107 184 191 198 178 160 169 174 122 99 138 152 160 164 167 167 171 178 172 178 158 142 124 121 132 126 123 115 123 129 127 113 129 107 103 89 76 87 87 84 78 70 62 53 51
181 136 65 78 173 229 213 194 173 141 188 211 175 114 143 163 167 168 168 168 171 190 189 175 150 144 122 118 129 126 115 111 115 117 125 138 132 102 132 79 47 75 82 78 73 72 73 63 46
163 78 65 81 279 262 253 200 179 160 184 185 170 181 186 183 174 180 173 172 167 185 193 174 166 159 146 136 129 136 101 98 165 185 178 209 239 281 163 246 325 104 117 122 116 103 81 76 62
151 82 76 191 233 251 258 192 171 197 189 174 181 161 198 192 190 186 175 177 178 173 184 196 188 172 160 146 147 144 106 87 231 211 188 190 192 227 246 235 250 205 167 136 88 45 15 4 11
118 90 190 172 211 255 217 181 186 190 188 216 197 156 211 200 185 188 181 185 186 181 187 194 189 187 169 164 173 204 265 256 234 219 206 215 229 241 236 232 245 266 238 122 99 61 4 354 335
122 91 103 221 197 249 185 165 202 179 206 198 186 210 225 197 191 191 191 195 198 200 187 183 196 204 207 218 224 229 227 220 181 167 166 181 205 221 237 239 227 222 232 240 276 305 313 313 317
130 67 189 221 161 268 165 165 172 188 176 193 203 225 221 190 197 196 197 200 209 213 206 197 194 196 202 201 211 208 194 187 173 155 160 158 201 199 216 232 248 261 263 270 283 288 287 306 293
105 121 218 197 198 202 175 200 177 196 202 223 225 222 214 200 202 205 204 209 215 216 212 210 208 202 209 203 209 213 213 210 209 209 215 261 259 234 239 241 250 264 274 276 286 280 281 298 278
139 182 182 211 200 164 161 197 199 186 235 231 229 227 222 207 204 209 210 217 222 224 214 209 203 199 205 207 219 230 231 229 230 243 267 276 269 258 255 263 271 274 271 272 277 288 292 302 297
138 92 143 160 185 176 164 186 242 224 236 267 251 239 228 216 210 213 215 220 226 228 217 208 184 192 206 216 223 231 224 236 255 257 264 267 268 255 265 269 272 271 269 270 276 282 282 288 293
99 167 124 148 163 264 264 254 255 261 261 255 243 232 221 220 222 219 222 228 233 229 221 210 211 211 218 222 230 231 222 227 234 262 270 267 271 272 281 278 272 273 273 276 274 272 274 280 282
151 164 167 179 170 188 248 264 320 254 259 246 226 223 218 222 226 226 227 233 239 234 216 212 213 218 225 224 223 225 231 233 248 264 277 281 281 283 285 291 292 290 290 287 291 291 281 274 277
124 164 307 238 199 180 333 267 232 261 265 253 221 225 226 225 224 229 235 239 240 234 218 212 212 218 231 232 226 223 227 233 244 254 268 283 287 288 289 291 292 292 290 291 295 294 295 289 287
82 55 121 214 180 194 139 266 250 230 210 228 226 224 225 225 227 232 233 238 234 227 219 215 214 216 225 229 226 225 228 231 237 245 258 266 277 286 292 295 292 290 291 292 294 296 281 275 274
9 226 205 297 212 162 181 258 254 214 218 232 229 225 225 227 226 226 228 235 232 228 219 215 215 219 225 230 224 225 228 232 237 245 257 273 283 291 292 290 289 289 290 289 286 284 280 276 273
202 218 253 256 13 199 243 263 264 242 255 256 252 240 232 230 230 230 231 232 228 222 217 216 216 217 222 225 223 226 229 232 237 244 258 276 288 296 297 297 295 292 292 289 290 291 288 286 282
140 172 198 219 26 283 251 269 276 273 255 255 255 249 247 243 237 229 230 229 227 219 216 215 215 216 218 220 221 225 229 234 240 247 260 275 287 296 297 296 295 295 294 293 292 292 292 289 288
131 180 251 283 139 247 330 287 267 268 249 253 257 258 255 250 241 231 229 225 228 223 217 215 215 217 221 223 225 229 232 235 239 252 265 279 298 303 300 297 295 292 291 291 291 290 290 289 288
202 195 220 235 333 76 322 284 312 293 272 280 268 268 262 253 245 229 226 224 225 219 217 219 218 216 217 219 222 228 232 235 241 250 263 281 293 299 299 294 292 292 292 291 288 287 286 286 284
242 299 73 85 68 252 349 286 266 291 307 289 289 275 262 257 255 233 225 223 225 224 222 222 218 215 217 221 226 231 238 239 238 247 261 274 290 299 299 294 292 291 290 289 288 286 284 283 280
194 115 105 87 86 358 13 105 276 3 302 282 283 305 284 243 245 235 215 222 226 225 225 223 219 217 219 224 229 233 237 235 236 246 259 273 285 292 293 293 292 291 290 288 288 286 282 278 275
151 93 67 68 115 217 204 171 274 255 215 260 276 336 332 251 247 218 205 212 217 220 219 217 217 216 218 222 226 231 235 234 236 244 253 263 274 282 287 288 286 286 287 285 283 281 279 276 272
111 94 325 331 357 227 127 156 242 275 244 236 272 286 335 300 230 215 210 214 219 222 222 224 221 217 217 220 223 229 231 232 232 237 249 263 279 289 288 286 284 284 284 282 281 280 279 275 270
189 173 171 223 219 266 17 226 244 236 272 263 265 273 286 272 249 226 219 221 224 227 232 232 228 220 217 220 222 225 226 228 231 236 252 270 281 286 286 285 284 284 282 279 278 277 274 270 266
192 196 219 39 92 17 224 287 286 274 280 276 284 283 280 282 265 239 223 223 225 231 237 238 231 220 217 219 221 224 225 227 233 242 253 268 279 282 282 282 280 279 278 278 277 276 274 269 263
176 167 84 22 277 263 259 260 232 258 272 298 310 298 299 293 292 261 236 229 227 231 234 232 225 220 216 217 219 224 227 227 233 242 259 270 277 279 278 280 279 278 279 278 276 275 272 267 260
151 220 74 148 164 222 292 249 209 229 301 319 347 4 4 350 322 293 262 235 233 237 237 233 225 216 213 218 221 225 229 230 232 245 263 275 277 274 274 276 278 278 274 270 271 272 270 265 255
212 207 163 185 226 229 165 261 352 76 21 12 6 355 350 348 347 328 291 244 238 239 240 236 230 224 220 221 225 229 232 233 239 256 269 278 274 263 269 277 276 276 272 272 276 275 268 260 254
Height
1529 1529 1529 1530 1537 1541 1551 1549 1546 1544 1544 1544 1545 1546 1548 1550 1550 1555 1550 1551 1553 1554 1555 1555 1555 1556 1556 1556 1557 1558 1558 1559 1559 1559 1559 1559 1558 1558 1559 1560 1560 1560 1561 1561 1561 1561 1561 1562 1563
1529 1529 1531 1530 1542 1548 1547 1546 1544 1543 1544 1544 1545 1547 1549 1551 1549 1549 1550 1551 1552 1554 1555 1555 1555 1555 1556 1556 1557 1558 1558 1559 1560 1559 1560 1560 1560 1561 1561 1561 1561 1562 1561 1562 1562 1563 1563 1563 1564
1530 1530 1532 1536 1550 1546 1546 1543 1541 1543 1543 1544 1546 1547 1548 1549 1548 1548 1549 1550 1552 1553 1554 1554 1555 1555 1556 1557 1558 1558 1559 1559 1560 1561 1561 1561 1562 1562 1563 1563 1563 1564 1564 1564 1564 1564 1564 1564 1564
1531 1532 1534 1539 1543 1542 1541 1539 1539 1541 1543 1544 1544 1546 1548 1547 1547 1548 1549 1550 1551 1552 1553 1554 1555 1555 1556 1557 1558 1558 1559 1559 1560 1561 1561 1562 1562 1563 1564 1564 1564 1565 1565 1565 1565 1565 1565 1564 1564
1531 1531 1540 1546 1545 1541 1539 1538 1539 1540 1541 1542 1543 1545 1546 1546 1546 1547 1548 1550 1551 1552 1552 1553 1554 1555 1556 1557 1558 1559 1559 1559 1560 1560 1561 1562 1562 1563 1564 1564 1564 1565 1565 1565 1565 1565 1565 1565 1564
1531 1532 1544 1547 1545 1539 1537 1536 1538 1540 1540 1542 1543 1543 1543 1543 1544 1545 1547 1549 1550 1551 1552 1553 1554 1555 1556 1556 1557 1558 1559 1559 1559 1560 1560 1561 1562 1563 1563 1564 1565 1565 1565 1566 1567 1567 1566 1565 1565
1530 1535 1542 1545 1543 1538 1534 1535 1537 1538 1540 1540 1540 1541 1541 1541 1543 1544 1547 1548 1549 1550 1551 1552 1553 1554 1555 1556 1557 1558 1558 1558 1558 1559 1559 1561 1561 1562 1563 1563 1564 1565 1565 1566 1566 1566 1566 1565 1565
1530 1534 1544 1544 1543 1536 1531 1533 1534 1536 1537 1538 1539 1539 1538 1539 1541 1543 1545 1547 1548 1549 1550 1551 1552 1553 1554 1555 1556 1556 1557 1557 1558 1559 1559 1560 1561 1561 1562 1563 1564 1564 1565 1566 1566 1567 1567 1566 1566
1529 1538 1544 1538 1542 1533 1533 1533 1534 1535 1535 1536 1536 1536 1537 1538 1540 1541 1543 1545 1546 1547 1548 1550 1550 1552 1553 1553 1554 1555 1556 1556 1557 1558 1559 1559 1560 1561 1562 1562 1563 1563 1564 1564 1565 1565 1565 1565 1565
1528 1538 1535 1533 1532 1531 1532 1534 1534 1536 1535 1534 1533 1534 1535 1536 1537 1539 1541 1543 1545 1546 1547 1548 1550 1551 1552 1553 1553 1554 1555 1556 1557 1557 1558 1559 1559 1560 1561 1561 1562 1562 1563 1563 1563 1563 1563 1563 1562
1529 1532 1530 1531 1530 1530 1531 1533 1533 1533 1534 1531 1530 1532 1532 1533 1535 1537 1539 1541 1543 1545 1546 1547 1549 1550 1551 1552 1552 1553 1554 1555 1555 1556 1557 1558 1559 1559 1559 1560 1560 1561 1561 1561 1561 1561 1561 1561 1560
1529 1529 1529 1530 1531 1532 1531 1531 1531 1531 1529 1529 1529 1531 1531 1531 1533 1535 1537 1539 1541 1543 1545 1547 1548 1549 1549 1550 1551 1552 1553 1554 1554 1555 1556 1556 1557 1558 1558 1558 1558 1558 1558 1558 1558 1558 1559 1558 1559
1529 1529 1529 1529 1530 1531 1531 1531 1531 1526 1527 1527 1528 1528 1530 1531 1532 1535 1537 1539 1540 1541 1543 1545 1546 1547 1548 1549 1550 1551 1551 1552 1553 1553 1554 1554 1555 1555 1555 1556 1556 1556 1556 1556 1555 1555 1555 1555 1556
1528 1529 1529 1529 1529 1529 1530 1530 1530 1523 1522 1522 1524 1525 1526 1528 1530 1532 1534 1536 1537 1539 1540 1542 1543 1545 1546 1547 1547 1549 1550 1551 1551 1552 1552 1552 1553 1553 1553 1553 1553 1553 1552 1552 1552 1551 1551 1551 1552
1528 1530 1529 1529 1528 1528 1528 1526 1525 1520 1520 1519 1520 1522 1524 1525 1526 1527 1529 1531 1533 1535 1537 1539 1541 1542 1543 1544 1545 1546 1548 1549 1549 1550 1550 1551 1550 1550 1550 1550 1550 1550 1550 1549 1549 1548 1548 1550 1551
1530 1532 1533 1527 1527 1527 1527 1528 1517 1516 1516 1516 1517 1518 1519 1520 1521 1523 1524 1525 1528 1530 1533 1535 1537 1539 1540 1541 1543 1544 1545 1546 1546 1547 1547 1547 1548 1548 1548 1548 1547 1547 1547 1547 1547 1546 1546 1547 1547
1535 1536 1535 1528 1526 1526 1527 1522 1512 1513 1513 1512 1511 1511 1512 1513 1515 1516 1518 1520 1522 1524 1526 1529 1532 1534 1536 1538 1538 1539 1541 1542 1543 1544 1544 1545 1545 1546 1546 1546 1545 1545 1545 1545 1544 1543 1543 1542 1543
1532 1534 1534 1531 1529 1528 1527 1520 1511 1512 1511 1507 1507 1506 1505 1505 1507 1511 1513 1515 1516 1518 1521 1523 1526 1528 1531 1533 1534 1536 1538 1539 1541 1542 1543 1543 1543 1543 1544 1544 1543 1543 1543 1542 1541 1541 1540 1540 1540
1525 1528 1528 1527 1529 1529 1526 1522 1508 1503 1504 1500 1498 1497 1497 1498 1504 1506 1507 1508 1510 1511 1514 1517 1520 1522 1524 1527 1530 1533 1535 1537 1539 1540 1540 1540 1540 1539 1540 1539 1540 1540 1540 1540 1540 1539 1538 1538 1538
1527 1529 1530 1528 1528 1529 1527 1512 1502 1498 1492 1491 1489 1488 1488 1490 1493 1496 1498 1500 1503 1506 1508 1511 1514 1519 1524 1527 1529 1531 1533 1534 1536 1537 1538 1538 1538 1538 1538 1537 1538 1537 1537 1536 1536 1535 1535 1535 1535
1529 1532 1531 1529 1529 1531 1531 1510 1498 1491 1490 1487 1486 1485 1483 1481 1482 1488 1492 1496 1499 1501 1505 1508 1513 1517 1520 1523 1525 1527 1529 1531 1532 1534 1535 1535 1536 1536 1535 1535 1535 1535 1534 1534 1533 1532 1532 1532 1531
1528 1529 1530 1533 1535 1537 1535 1525 1501 1493 1491 1485 1476 1475 1474 1477 1480 1482 1488 1493 1497 1501 1504 1506 1509 1513 1517 1519 1522 1524 1525 1527 1528 1530 1532 1533 1534 1533 1533 1533 1532 1532 1532 1531 1530 1529 1529 1529 1529
1524 1527 1533 1539 1547 1544 1541 1543 1496 1498 1490 1479 1469 1470 1469 1470 1473 1476 1484 1491 1495 1498 1502 1505 1508 1511 1514 1516 1519 1520 1522 1523 1524 1526 1528 1529 1530 1530 1530 1530 1529 1529 1529 1528 1528 1527 1527 1526 1526
1523 1528 1535 1545 1545 1550 1527 1529 1510 1493 1480 1474 1470 1469 1468 1470 1473 1476 1480 1484 1488 1491 1494 1497 1499 1503 1507 1510 1513 1515 1517 1519 1520 1522 1524 1525 1526 1525 1525 1525 1525 1525 1525 1525 1524 1524 1523 1523 1523
1523 1527 1543 1545 1552 1525 1535 1535 1498 1480 1472 1472 1467 1466 1468 1469 1471 1474 1478 1482 1485 1488 1491 1493 1495 1498 1501 1505 1507 1511 1513 1514 1515 1517 1519 1520 1521 1521 1521 1521 1520 1520 1520 1521 1520 1521 1520 1519 1519
1525 1521 1532 1536 1536 1523 1539 1519 1489 1474 1469 1464 1463 1463 1465 1467 1467 1469 1473 1477 1481 1484 1486 1488 1491 1494 1497 1501 1504 1506 1508 1510 1511 1513 1515 1516 1516 1516 1516 1515 1515 1516 1516 1516 1516 1516 1516 1515 1515
1523 1528 1521 1524 1538 1544 1512 1497 1481 1470 1466 1460 1461 1463 1464 1465 1466 1467 1469 1473 1477 1479 1482 1484 1486 1489 1493 1496 1499 1501 1503 1504 1507 1509 1509 1510 1511 1511 1510 1510 1510 1510 1510 1511 1512 1512 1513 1512 1512
1514 1515 1525 1533 1530 1523 1509 1502 1487 1469 1467 1465 1464 1463 1464 1465 1466 1467 1468 1470 1473 1475 1476 1478 1480 1484 1488 1491 1493 1496 1497 1499 1502 1503 1505 1505 1505 1505 1505 1504 1505 1505 1506 1507 1507 1508 1508 1507 1508
1517 1518 1517 1518 1522 1521 1508 1490 1475 1469 1468 1469 1469 1469 1467 1466 1465 1465 1466 1468 1471 1473 1474 1475 1476 1477 1480 1484 1488 1491 1494 1496 1497 1498 1500 1500 1499 1499 1499 1499 1499 1500 1501 1502 1503 1504 1504 1505 1504
1503 1503 1505 1510 1510 1522 1525 1474 1469 1469 1470 1469 1470 1468 1467 1467 1465 1465 1465 1468 1468 1469 1470 1472 1474 1477 1478 1480 1484 1487 1490 1492 1494 1495 1494 1493 1494 1493 1493 1493 1495 1496 1497 1498 1499 1499 1499 1500 1501